Location: *
(58.4167°N, 22.5000°E)
Time: 03:57:17
(UTC+00:00)

Meteor 1-21 Rocket - Pass Details

Date: 22 September 2019
Orbit: 834 x 907 km, 81.2° (Epoch: 19 October)

Event Time Altitude Azimuth Distance (km) Brightness Sun altitude
Rises 18:47:44 0° 343° (NNW) 3,521 8.2 -17.9°
Reaches altitude 10° 18:50:13 10° 346° (NNW) 2,585 7.4 -18.1°
Maximum altitude 18:56:08 72° 71° (ENE) 954 4.3 -18.8°
Enters shadow 18:59:09 30° 150° (SSE) 1,562 5.1 -19.1°
